Regional Weather Roundup
Issued by NWS

Home | Current Version | Previous Version | Graphics & Text | Print | Product List | Glossary On
Versions: 1 2 3 4 5 6 7 8 9 10 11 12 13 14 15 16 17 18 19 20 21 22 23 24 25 26 27 28 29 30 31 32 33 34 35 36 37 38 39 40 41 42 43 44 45 46 47 48 49 50
000
ASUS43 KLOT 211110
RWRIL

ILLINOIS REGIONAL WEATHER ROUNDUP
NATIONAL WEATHER SERVICE CHICAGO/ROMEOVILLE IL
600 AM CDT MON APR 21 2014

NOTE: "FAIR" INDICATES FEW OR NO CLOUDS BELOW 12,000 FEET WITH NO
SIGNIFICANT WEATHER AND/OR OBSTRUCTIONS TO VISIBILITY.

* THESE STATIONS ARE NOT UNDER NWS QUALITY CONTROL. THEY ALSO MAY NOT
  REPORT WEATHER SUCH AS PRECIPITATION OR FOG.

ILZ001-002-007-009-015-016-024-211200-
NORTHWEST ILLINOIS

CITY           SKY/WX    TMP DP  RH WIND       PRES   REMARKS
MOLINE         MOCLDY    58  45  62 CALM      29.93F
STERLING*      MOCLDY    52  45  76 CALM      29.94F
SAVANNA*       CLOUDY    57  45  65 SE5       29.93F
$$

ILZ003-004-008-010-011-017-018-211200-
NORTH CENTRAL ILLINOIS

CITY           SKY/WX    TMP DP  RH WIND       PRES   REMARKS
ROCKFORD       CLOUDY    58  44  60 S7        29.95F
FREEPORT*      CLOUDY    59  46  62 S8        29.96S
ROCHELLE*      MOCLDY    53  43  69 SE6       29.95F
DE KALB*       MOCLDY    50  42  74 S3        29.97F
PERU*          PTCLDY    56  43  63 CALM      29.96F
$$

ILZ005-006-012>014-019>023-211200-
NORTHEAST ILLINOIS

CITY           SKY/WX    TMP DP  RH WIND       PRES   REMARKS
CHICAGO-OHARE  CLOUDY    59  41  51 SW5       29.97S
CHICAGO-MIDWAY CLOUDY    61  43  51 S6        29.97F
AURORA         MOCLDY    50  42  74 CALM      29.97F
LANSING*       MOCLDY    54  42  63 S5        29.99F
JOLIET*        PTCLDY    51  43  72 CALM      29.99S
WAUKEGAN       CLOUDY    57  45  64 S8        29.95F
DUPAGE AIRPORT MOCLDY    53  44  71 S6        29.97S
KANKAKEE*      MOCLDY    50  43  76 CALM      30.00F
WHEELING       CLOUDY    58  46  64 CALM      29.98S
MORRIS*        PTCLDY    54  39  57 SE7       29.96F
ROMEOVILLE*    PTCLDY    52  42  70 S8        29.98S
NORTHERLY ISL    N/A     62  41  46 S2          N/A
$$

LMZ740>746-211200-
SOUTHERN LAKE MICHIGAN

STATION/POSITION SKY/WX   TEMP    WIND        PRES    VSBY  WAVE
                          AIR SEA DIR/SP/G                  HT/PER
                          (F)     (DEG/KT/KT) (MB)    (MI)  (FT/S)
WAUKEGAN HARBOR            56     200/  7/  7 1015.6F
HARRISON CRIB              62     190/ 16/ 18   N/A
BURNHAM HARBOR             62     230/  5/  8   N/A
CALUMET HARBOR             60     190/  6/  8 1015.9F
MICHIGAN CITY              62     160/ 11/ 14   N/A
$$

ILZ025>027-034>036-040-047-049-050-058-095>099-211200-
WEST-CENTRAL ILLINOIS

CITY           SKY/WX    TMP DP  RH WIND       PRES   REMARKS
QUINCY         CLOUDY    60  47  61 S6        29.98S
GALESBURG*     CLOUDY    57  47  69 S5        29.96S
MACOMB*        CLOUDY    59  46  61 SW5       29.99F
JACKSONVILLE*  CLOUDY    63  45  52 SW7       29.99S
PITTSFIELD*    MOCLDY    64  46  53 S6        30.00S
$$

ILZ028>032-037-038-041>044-048-051>054-059>061-211200-
CENTRAL ILLINOIS

CITY           SKY/WX    TMP DP  RH WIND       PRES   REMARKS
PONTIAC        MOCLDY    54  46  76 SE5       29.98F
BLOOMINGTON    CLOUDY    54  43  66 SW8       29.99F
DECATUR        CLOUDY    59  46  62 SW8       30.00S
PEORIA         CLOUDY    59  44  57 S5        29.98S
LACON*         CLOUDY    60  45  57 S3        29.95F
LINCOLN*       CLOUDY    59  47  64 CALM      29.97F
SPRINGFIELD    MOCLDY    62  45  53 SW7       29.99F
TAYLORVILLE    MOCLDY    55  46  71 S8        30.00F
$$

ILZ033-039-045-046-055>057-062-063-211200-
EAST-CENTRAL ILLINOIS

CITY           SKY/WX    TMP DP  RH WIND       PRES   REMARKS
CHAMPAIGN      CLOUDY    58  44  60 S8        30.00F
RANTOUL*       CLOUDY    55  44  64 CALM      30.01S
MATTOON        CLOUDY    60  43  53 S9        30.01F
PARIS*         MOCLDY    54  46  73 S6        30.04S
$$

ILZ079-100>102-211200-
SOUTHWEST ILLINOIS

CITY           SKY/WX    TMP DP  RH WIND       PRES   REMARKS
ALTON          PTCLDY    54  48  82 SE5       30.01S
BELLEVILLE     PTCLDY    60  48  66 S2        30.01S
CAHOKIA*       PTCLDY    60  48  64 S6        30.01S
SPARTA*        MOCLDY    61  45  55 S7        30.04S
$$

ILZ064>066-069>071-074>076-080>082-084>086-088>090-092>094-211200-
SOUTH-CENTRAL ILLINOIS

CITY           SKY/WX    TMP DP  RH WIND       PRES   REMARKS
CARBONDALE     CLOUDY    54  50  86 S3        30.05S
CAIRO*         CLOUDY    58  53  82 CALM      30.06S
MARION         CLOUDY    59  48  67 S6        30.06R
MT. VERNON     MOCLDY    52  41  66 CALM      30.05S
CENTRALIA*       N/A     60  45  59 CALM      30.03S
SALEM*         CLOUDY    61  48  61 S5        30.03F
METROPOLIS*    CLOUDY    55  49  80 CALM      30.06S
$$

ILZ067-068-072-073-078-083-087-091-211200-
SOUTHEAST ILLINOIS

CITY           SKY/WX    TMP DP  RH WIND       PRES   REMARKS
FAIRFIELD*     MOCLDY    55  46  71 CALM      30.05S
HARRISBURG*    CLOUDY    54  50  86 CALM      30.07S
ROBINSON*      MOCLDY    55  48  77 S3        30.05F
CARMI*         PTCLDY    54  49  83 S3        30.05S
$$

ABBREVIATIONS USED IN REMARKS
   TC - TEMPERATURE IN CELSIUS
  WCI - WIND CHILL INDEX
   HX - HEAT INDEX
  VSB - VISIBILITY
$$




USA.gov is the U.S. government's official web portal to all federal, state and local government web resources and services.